星链-34422 (STARLINK-34422)

导读

STARLINK-34422是美国星链星座下属卫星,星链是美国太空探索技术公司打造的低轨卫星互联网项目,该卫星于2025年6月17日发射入轨。星链系统旨在为全球提供高速互联网接入服务,该卫星会承担相应的通信转发任务,支撑星座服务覆盖能力,目前在轨参与系统组网运行。

Basic Information
目录编号:
64415
目录名称:
STARLINK-34422
国际标识:
2025-129D
轨道中心:
EARTH
卫星名称:
星链-34422
卫星全名:
星链-34422 (STARLINK-34422)
卫星状态:
在轨 (已飞行444 天)
发射日期:
2025-06-17 UTC
国别 :
美国 (US)
星等 :
--
Orbit Information
数据来源 国际轨道数据
星历时间: 2026-09-04T12:00:02+0800
5小时前
查看轨道信息
半长轴: 6882.345km
偏心率: 0.0000801
轨道倾角: 70.002°
近地点辐角 314.288°
升交点赤经 344.259°
平近点角 162.550°
近地点: 503.656km
远地点: 504.76km
周期: 94.703分钟
每日圈数: 15.205411
Detailed Information
固有亮度:
5
最大亮度:
2.5
卫星平台:
Starlink V1.0
覆盖范围:
全球
运营商:
太空探索技术公司
运营商所在国:
美国
制造商(研发单位):
太空探索技术公司
制造商所在国:
美国
使用方式:
暂无
Satellite Introduction
Starlink 计划是 SpaceX 推出的全球卫星互联网项目,通过发射低轨道卫星,为全球尤其是偏远地区提供高速、低延迟的互联网服务。自 2019 年起,Starlink 已部署数千颗卫星,旨在缩小全球数字鸿沟,推动互联网普及。该项目还为军事、航空等行业提供通信支持,带来广泛经济效益。
2D Orbit Map
3D Orbit Map
Orbit Altitude Analysis Chart
Orbit Inclination Analysis Chart
Orbit Comprehensive Analysis Chart
View Comprehensive Chart
Conjunction Data List
Event ID Objects TCA Miss Dist (km) Collision Risk Probability Collision Risk Index (CRI) Action
CDM_260906-085604-833006-441521
2026-09-06T
08:56:17+0000
0.984 km
远距离
7.957788E-6 低风险 0.53
CDM_260902-130905-403506-441521
HJ-2E (54035)
2026-09-02T
13:09:38+0000
2.911 km
极远距离
1.21963E-6 低风险 0.37
CDM_260904-185805-320906-441521
2026-09-04T
18:58:48+0000
2.510 km
极远距离
1.045488E-6 低风险 0.35
CDM_260906-080904-833006-441521
2026-09-06T
08:09:12+0000
2.752 km
极远距离
5.42462E-7 极低风险 0.3
CDM_260906-120404-833006-441521
2026-09-06T
12:04:25+0000
2.811 km
极远距离
5.28371E-7 极低风险 0.29